Location: Medlow Airstrip Trail, Medlow Bath NSW 2780, Australia
(33.6682°S, 150.3233°E)
Time: 05:18:21
(UTC+11:00)

SR - All Passes

Search period start: 18 October 2019 00:00
Search period end: 28 October 2019 00:00
Orbit: 575 x 881 km, 66.7° (Epoch: 16 October)

Date Brightness Start Highest point End Pass type
(mag) Time Alt. Az. Time Alt. Az. Time Alt. Az.
18 Oct - 10:11:48 10° NNE 10:15:55 23° ENE 10:19:49 10° ESE daylight
18 Oct - 11:52:51 10° NW 11:57:46 37° WSW 12:02:19 10° S daylight
18 Oct - 20:37:27 10° SSW 20:41:39 57° ESE 20:45:52 10° NE visible
19 Oct - 11:02:42 10° NNW 11:08:05 81° WSW 11:13:01 10° SSE daylight
19 Oct - 19:48:25 10° S 19:51:53 24° ESE 19:55:21 10° ENE visible
19 Oct - 21:30:22 10° SW 21:33:45 23° WNW 21:37:12 10° NNW visible
20 Oct - 10:13:23 10° N 10:18:30 46° ENE 10:23:14 10° SE daylight
20 Oct - 11:56:57 10° W 12:00:40 19° SW 12:04:12 10° S daylight
20 Oct - 19:00:46 10° SE 19:01:55 11° SE 19:03:04 10° ESE daylight
20 Oct - 20:40:07 10° SW 20:44:18 60° WNW 20:48:32 10° NNE visible
21 Oct - 09:25:06 10° NNE 09:29:02 21° ENE 09:32:45 10° ESE daylight
21 Oct - 11:05:54 10° NW 11:10:50 39° WSW 11:15:26 10° S daylight
21 Oct - 19:50:33 10° SSW 19:54:42 52° ESE 19:58:54 10° NE visible
22 Oct - 10:15:49 10° NNW 10:21:10 86° WSW 10:26:05 10° SSE daylight
22 Oct - 19:01:34 10° S 19:04:56 22° SE 19:08:18 10° ENE daylight
22 Oct - 20:43:19 10° SW 20:46:51 25° WNW 20:50:24 10° NNW visible
23 Oct - 09:26:35 10° N 09:31:36 42° ENE 09:36:15 10° SE daylight
23 Oct - 11:09:54 10° WNW 11:13:43 21° SW 11:17:21 10° S daylight
23 Oct - 18:14:33 10° SE 18:14:57 10° SE 18:15:20 10° SE daylight
23 Oct - 19:53:09 10° SSW 19:57:22 66° WNW 20:01:39 10° NNE visible
24 Oct - 08:38:25 10° NNE 08:42:08 19° ENE 08:45:39 10° ESE daylight
24 Oct - 10:18:56 10° NW 10:23:54 42° WSW 10:28:31 10° S daylight
24 Oct - 19:03:38 10° SSW 19:07:45 48° ESE 19:11:55 10° NE daylight
24 Oct - 20:48:03 10° W 20:49:16 11° WNW 20:50:31 10° WNW visible
25 Oct - 09:28:56 10° NNW 09:34:15 88° ENE 09:39:08 10° SSE daylight
25 Oct - 11:15:48 10° WSW 11:16:46 10° SW 11:17:43 10° SW daylight
25 Oct - 18:14:43 10° S 18:17:58 21° SE 18:21:14 10° ENE daylight
25 Oct - 19:56:17 10° SW 19:59:55 28° WNW 20:03:37 10° NNW visible
26 Oct - 08:39:46 10° N 08:44:41 39° ENE 08:49:15 10° SE daylight
26 Oct - 10:22:51 10° WNW 10:26:46 22° SW 10:30:30 10° S daylight
26 Oct - 19:06:12 10° SSW 19:10:26 72° WNW 19:14:46 10° NNE daylight
27 Oct - 07:51:46 10° NNE 07:55:14 18° ENE 07:58:32 10° ESE daylight
27 Oct - 09:31:59 10° NW 09:36:59 45° WSW 09:41:36 10° SSE daylight
27 Oct - 18:16:43 10° SSW 18:20:48 44° ESE 18:24:57 10° NE daylight
27 Oct - 20:00:39 10° W 20:02:22 12° WNW 20:04:06 10° NW visible
